Weather History for Jackson, WY

Change the Weather History Date:

Wednesday, July 17, 2013

  Actual Average Record
Temperature  
Mean Temperature 70 °F -  
Max Temperature 84 °F 80 °F 90 °F (1971)
Min Temperature 55 °F 42 °F 28 °F (1983)
Cooling Degree Days 4    
Growing Degree Days 20 (Base 50)    
Moisture  
Dew Point 55 °F    
Average Humidity 78    
Maximum Humidity 100    
Minimum Humidity 32    
Precipitation  
Precipitation 0.03 in - - ()
Sea Level Pressure  
Sea Level Pressure 30.30 in    
Wind  
Wind Speed 5 mph (NNE)    
Max Wind Speed 29 mph    
Max Gust Speed 37 mph    
Visibility 10 miles    
Events Rain , Thunderstorm    
Averages and records for this station are not official NWS values.
T = Trace of Precipitation, MM = Missing Value Source: NWS Daily Summary

Daily Weather History Graph

Daily Weather History Graph

Search for Another Location

Airport:

Trip Planner

Search our weather history database for the weather conditions in past years. The results will help you decide how hot, cold, wet, or windy it might be!

Date:

Astronomy

Jul. 17, 2013 Rise Set
Actual Time 5:57 AM MDT 9:00 PM MDT
Civil Twilight 5:23 AM MDT 9:34 PM MDT
Nautical Twilight 4:39 AM MDT 10:18 PM MDT
Astronomical Twilight 3:46 AM MDT 11:10 PM MDT
Moon 3:51 PM MDT (7/17) 1:10 AM MDT (7/17)
Length of Visible Light 16h 11m
Length of Day
15h 02m
Waxing Gibbous, 68% of the Moon is Illuminated
Jul 17
Waxing Gibbous
Jul 22
Full
Jul 29
Last Quarter
Aug 6
New
Aug 14
First Quarter

Hourly Weather History & Observations

Time (MDT) Temp. Heat Index Dew Point Humidity Pressure Visibility Wind Dir Wind Speed Gust Speed Precip Events Conditions
12:15 AM 59.0 °F - 57.2 °F 94% 30.32 in 10.0 mi North 10.4 mph - N/A   Overcast
12:35 AM 59.0 °F - 57.2 °F 94% 30.32 in 10.0 mi NNW 8.1 mph - N/A   Overcast
12:55 AM 59.0 °F - 57.2 °F 94% 30.32 in 10.0 mi NNE 10.4 mph - N/A   Overcast
1:16 AM 60.8 °F - 57.2 °F 88% 30.32 in 10.0 mi NE 5.8 mph - N/A   Overcast
1:35 AM 60.8 °F - 57.2 °F 88% 30.32 in 10.0 mi Calm Calm - N/A   Overcast
1:55 AM 60.8 °F - 57.2 °F 88% 30.32 in 10.0 mi Calm Calm - N/A   Mostly Cloudy
2:15 AM 59.0 °F - 57.2 °F 94% 30.32 in 10.0 mi Calm Calm - N/A   Partly Cloudy
2:35 AM 59.0 °F - 57.2 °F 94% 30.32 in 10.0 mi NNE 3.5 mph - N/A   Clear
2:55 AM 57.2 °F - 57.2 °F 100% 30.32 in 10.0 mi Calm Calm - N/A   Partly Cloudy
3:15 AM 57.2 °F - 55.4 °F 94% 30.31 in 10.0 mi ENE 5.8 mph - N/A   Partly Cloudy
3:35 AM 59.0 °F - 55.4 °F 88% 30.31 in 10.0 mi NE 4.6 mph - N/A   Scattered Clouds
3:55 AM 59.0 °F - 55.4 °F 88% 30.31 in 10.0 mi Calm Calm - N/A   Partly Cloudy
4:15 AM 57.2 °F - 55.4 °F 94% 30.31 in 10.0 mi Calm Calm - N/A   Scattered Clouds
4:35 AM 57.2 °F - 55.4 °F 94% 30.31 in 10.0 mi NE 3.5 mph - N/A   Overcast
4:55 AM 57.2 °F - 55.4 °F 94% 30.31 in 10.0 mi Calm Calm - N/A   Overcast
5:16 AM 55.4 °F - 55.4 °F 100% 30.31 in 10.0 mi Calm Calm - N/A   Scattered Clouds
5:35 AM 55.4 °F - 55.4 °F 100% 30.31 in 10.0 mi North 3.5 mph - N/A   Clear
5:55 AM 55.4 °F - 55.4 °F 100% 30.32 in 10.0 mi North 3.5 mph - N/A   Clear
6:15 AM 55.4 °F - 55.4 °F 100% 30.32 in 10.0 mi NNE 3.5 mph - N/A   Scattered Clouds
6:35 AM 55.4 °F - 53.6 °F 94% 30.33 in 10.0 mi Calm Calm - N/A   Mostly Cloudy
6:54 AM 55.4 °F - 53.6 °F 94% 30.33 in 10.0 mi Calm Calm - N/A   Scattered Clouds
7:51 AM 57.2 °F - 57.2 °F 100% 30.34 in 10.0 mi Calm Calm - N/A   Mostly Cloudy
8:51 AM 59.0 °F - 57.2 °F 94% 30.35 in 10.0 mi Calm Calm - N/A   Mostly Cloudy
9:52 AM 60.8 °F - 57.2 °F 88% 30.35 in 10.0 mi Calm Calm - N/A   Mostly Cloudy
10:52 AM 64.4 °F - 57.2 °F 77% 30.34 in 10.0 mi Calm Calm - N/A   Mostly Cloudy
12:16 PM 73.4 °F - 53.6 °F 50% 30.33 in 10.0 mi SSE 4.6 mph - N/A   Clear
12:53 PM 75.2 °F - 55.4 °F 50% 30.32 in 10.0 mi SSW 3.5 mph - N/A   Partly Cloudy
1:51 PM 80.6 °F 80.3 °F 53.6 °F 39% 30.30 in 10.0 mi Calm Calm - N/A   Partly Cloudy
2:51 PM 80.6 °F 80.5 °F 55.4 °F 42% 30.28 in 10.0 mi WSW 6.9 mph - N/A   Scattered Clouds
3:51 PM 82.4 °F - 50.0 °F 32% 30.26 in 10.0 mi WSW 4.6 mph - N/A   Clear
4:54 PM 84.2 °F - 51.8 °F 33% 30.24 in 10.0 mi South 4.6 mph - N/A   Clear
5:51 PM 84.2 °F - 51.8 °F 33% 30.22 in 10.0 mi SW 5.8 mph - N/A   Clear
6:51 PM 78.8 °F - 53.6 °F 42% 30.22 in 10.0 mi South 5.8 mph - N/A   Scattered Clouds
7:25 PM 71.6 °F - 53.6 °F 53% 30.24 in 7.0 mi SSW 28.8 mph 36.8 mph N/A Rain , Thunderstorm Thunderstorms and Rain
7:55 PM 68.0 °F - 55.4 °F 64% 30.25 in 10.0 mi WNW 3.5 mph - N/A   Scattered Clouds
8:51 PM 66.2 °F - 57.2 °F 73% 30.26 in 10.0 mi SE 3.5 mph - N/A   Clear
8:55 PM 66.2 °F - 57.2 °F 73% 30.26 in 10.0 mi Calm Calm - N/A   Clear
9:15 PM 66.2 °F - 53.6 °F 64% 30.26 in 10.0 mi Calm Calm - N/A   Clear
9:35 PM 66.2 °F - 55.4 °F 68% 30.27 in 10.0 mi ESE 4.6 mph - N/A   Clear
9:55 PM 66.2 °F - 51.8 °F 60% 30.28 in 10.0 mi NE 4.6 mph - N/A   Clear
10:15 PM 62.6 °F - 59.0 °F 88% 30.29 in 10.0 mi Calm Calm - N/A   Mostly Cloudy
10:35 PM 59.0 °F - 57.2 °F 94% 30.30 in 10.0 mi North 6.9 mph - N/A   Mostly Cloudy
10:55 PM 60.8 °F - 57.2 °F 88% 30.30 in 10.0 mi North 13.8 mph - N/A   Scattered Clouds
11:15 PM 62.6 °F - 55.4 °F 77% 30.30 in 10.0 mi North 15.0 mph - N/A   Mostly Cloudy
11:35 PM 60.8 °F - 55.4 °F 82% 30.31 in 10.0 mi North 12.7 mph - N/A   Overcast
11:55 PM 62.6 °F - 53.6 °F 72% 30.32 in 10.0 mi North 8.1 mph - N/A   Overcast